488P/NEAT-PanSTARRS (2002)

Japanese version
Home page
Updated on September 26, 2024

---------------------------------------------------------------------

* Profile

Designation 488P/2002 QU151
Discovery Date August 18, 2024
Magnitude 19.0 mag
Discoverer Reinder J. Bouma (NEAT survey)

* Orbital Elements

                    Epoch = 2002 Sept. 3.0 TT
     T = 2002 Sept. 3.92009 TT        Peri. =   1.25292
     e = 0.5471001                    Node  = 324.16139 2000.0
     q = 1.6985286 AU                 Incl. =  11.34129
       a =  3.7503402 AU   n = 0.13570570   P =   7.26 years

* Magnitudes Graph

        m1 = 17.3 + 5 log d + 10.0 log r

---------------------------------------------------------------------

The orbital elements are printed on CBET 5427.
The magnitudes graphs are made with Comet for Windows.

---------------------------------------------------------------------

Copyright(C) Seiichi Yoshida (comet@aerith.net). All rights reserved.